Weather History for West Yellowstone, MT

Change the Weather History Date:

Friday, October 25, 2013

  Actual Average Record
Temperature  
Mean Temperature 38 °F -  
Max Temperature 59 °F 47 °F 59 °F (2013)
Min Temperature 17 °F 22 °F 6 °F (2012)
Degree Days  
Heating Degree Days 27    
Moisture  
Dew Point 31 °F    
Average Humidity 86    
Maximum Humidity 93    
Minimum Humidity 80    
Precipitation  
Precipitation 0.00 in - - ()
Sea Level Pressure  
Sea Level Pressure 30.30 in    
Wind  
Wind Speed 0 mph (WSW)    
Max Wind Speed 6 mph    
Max Gust Speed -    
Visibility 10 miles    
Events      
Averages and records for this station are not official NWS values.
T = Trace of Precipitation, MM = Missing Value Source: NWS Daily Summary

Daily Weather History Graph

Daily Weather History Graph

Search for Another Location

Airport:

Trip Planner

Search our weather history database for the weather conditions in past years. The results will help you decide how hot, cold, wet, or windy it might be!

Date:

Astronomy

Oct. 25, 2013 Rise Set
Actual Time 7:53 AM MDT 6:22 PM MDT
Civil Twilight 7:23 AM MDT 6:52 PM MDT
Nautical Twilight 6:49 AM MDT 7:27 PM MDT
Astronomical Twilight 6:15 AM MDT 8:00 PM MDT
Moon 11:42 PM MDT (10/25) 1:39 PM MDT (10/25)
Length of Visible Light 11h 29m
Length of Day
10h 29m
Waning Gibbous, 62% of the Moon is Illuminated
Oct 25
Waning Gibbous
Oct 26
Last Quarter
Nov 3
New
Nov 9
First Quarter
Nov 17
Full

Hourly Weather History & Observations

Time (MDT) Temp. Windchill Dew Point Humidity Pressure Visibility Wind Dir Wind Speed Gust Speed Precip Events Conditions
12:10 AM 26.6 °F - 23.0 °F 86% 30.25 in 10.0 mi Calm Calm - N/A   Clear
12:30 AM 24.8 °F - 23.0 °F 93% 30.25 in 10.0 mi Calm Calm - N/A   Clear
12:50 AM 24.8 °F - 21.2 °F 86% 30.26 in 10.0 mi Calm Calm - N/A   Clear
1:10 AM 24.8 °F - 23.0 °F 93% 30.26 in 10.0 mi Calm Calm - N/A   Clear
1:30 AM 24.8 °F - 21.2 °F 86% 30.26 in 10.0 mi Calm Calm - N/A   Clear
1:50 AM 24.8 °F - 19.4 °F 80% 30.26 in 10.0 mi Calm Calm - N/A   Clear
2:10 AM 23.0 °F - 19.4 °F 86% 30.27 in 10.0 mi Calm Calm - N/A   Clear
2:30 AM 23.0 °F - 19.4 °F 86% 30.27 in 10.0 mi Calm Calm - N/A   Clear
2:50 AM 23.0 °F - 19.4 °F 86% 30.28 in 10.0 mi Calm Calm - N/A   Clear
3:10 AM 23.0 °F - 19.4 °F 86% 30.28 in 10.0 mi Calm Calm - N/A   Clear
3:30 AM 23.0 °F - 17.6 °F 80% 30.28 in 10.0 mi Calm Calm - N/A   Clear
3:50 AM 21.2 °F - 17.6 °F 86% 30.28 in 10.0 mi Calm Calm - N/A   Clear
4:10 AM 19.4 °F - 17.6 °F 93% 30.28 in 10.0 mi Calm Calm - N/A   Clear
4:30 AM 19.4 °F - 17.6 °F 93% 30.28 in 10.0 mi Calm Calm - N/A   Clear
4:50 AM 19.4 °F - 15.8 °F 86% 30.29 in 10.0 mi Calm Calm - N/A   Clear
5:10 AM 19.4 °F - 15.8 °F 86% 30.30 in 10.0 mi Calm Calm - N/A   Clear
5:30 AM 19.4 °F - 15.8 °F 86% 30.30 in 10.0 mi Calm Calm - N/A   Clear
5:50 AM 19.4 °F - 15.8 °F 86% 30.30 in 10.0 mi Calm Calm - N/A   Clear
6:10 AM 17.6 °F - 15.8 °F 93% 30.30 in 10.0 mi Calm Calm - N/A   Clear
6:30 AM 17.6 °F - 15.8 °F 93% 30.30 in 10.0 mi Calm Calm - N/A   Clear
6:50 AM 17.6 °F - 15.8 °F 93% 30.31 in 10.0 mi Calm Calm - N/A   Clear
7:10 AM 17.6 °F - 14.0 °F 86% 30.31 in 10.0 mi Calm Calm - N/A   Clear
7:30 AM 17.6 °F - 14.0 °F 86% 30.30 in 10.0 mi Calm Calm - N/A   Clear
7:50 AM 17.6 °F - 14.0 °F 86% 30.30 in 10.0 mi Calm Calm - N/A   Clear
8:10 AM 17.6 °F - 14.0 °F 86% 30.31 in 10.0 mi Calm Calm - N/A   Clear
8:30 AM 19.4 °F - 15.8 °F 86% 30.31 in 10.0 mi Calm Calm - N/A   Clear
8:50 AM 23.0 °F - 19.4 °F 86% 30.32 in 10.0 mi Calm Calm - N/A   Clear
9:10 AM 26.6 °F - 23.0 °F 86% 30.32 in 10.0 mi Calm Calm - N/A   Clear
9:30 AM 28.4 °F - 24.8 °F 86% 30.33 in 10.0 mi Calm Calm - N/A   Clear
9:50 AM 32.0 °F - 26.6 °F 80% 30.33 in 10.0 mi Calm Calm - N/A   Clear
10:10 AM 32.0 °F - 28.4 °F 87% 30.33 in 10.0 mi Calm Calm - N/A   Clear
10:30 AM 33.8 °F - 30.2 °F 87% 30.33 in 10.0 mi Calm Calm - N/A   Clear
10:50 AM 35.6 °F - 32.0 °F 87% 30.33 in 10.0 mi Calm Calm - N/A   Clear
11:10 AM 39.2 °F - 33.8 °F 81% 30.32 in 10.0 mi Calm Calm - N/A   Clear
11:30 AM 41.0 °F - 37.4 °F 87% 30.32 in 10.0 mi Calm Calm - N/A   Clear
11:50 AM 42.8 °F - 37.4 °F 81% 30.32 in 10.0 mi Calm Calm - N/A   Clear
12:10 PM 44.6 °F - 41.0 °F 87% 30.32 in 10.0 mi Calm Calm - N/A   Clear
12:30 PM 46.4 °F - 42.8 °F 87% 30.31 in 10.0 mi Calm Calm - N/A   Clear
12:50 PM 48.2 °F - 44.6 °F 87% 30.31 in 10.0 mi Calm Calm - N/A   Clear
1:10 PM 50.0 °F - 46.4 °F 87% 30.31 in 10.0 mi Calm Calm - N/A   Clear
1:30 PM 53.6 °F - 48.2 °F 82% 30.29 in 10.0 mi Calm Calm - N/A   Clear
1:50 PM 55.4 °F - 50.0 °F 82% 30.28 in 10.0 mi SE 3.5 mph - N/A   Clear
2:10 PM 57.2 °F - 51.8 °F 82% 30.28 in 10.0 mi Calm Calm - N/A   Clear
2:30 PM 57.2 °F - 53.6 °F 88% 30.27 in 10.0 mi WSW 4.6 mph - N/A   Clear
2:50 PM 59.0 °F - 53.6 °F 82% 30.27 in 10.0 mi Calm Calm - N/A   Clear
3:10 PM 59.0 °F - 55.4 °F 88% 30.27 in 10.0 mi Calm Calm - N/A   Clear
3:30 PM 59.0 °F - 55.4 °F 88% 30.27 in 10.0 mi Calm Calm - N/A   Clear
3:50 PM 59.0 °F - 55.4 °F 88% 30.27 in 10.0 mi West 3.5 mph - N/A   Clear
4:10 PM 59.0 °F - 55.4 °F 88% 30.27 in 10.0 mi SE 5.8 mph - N/A   Clear
4:30 PM 59.0 °F - 55.4 °F 88% 30.27 in 10.0 mi SW 4.6 mph - N/A   Clear
4:50 PM 59.0 °F - 55.4 °F 88% 30.27 in 10.0 mi West 4.6 mph - N/A   Clear
5:10 PM 59.0 °F - 55.4 °F 88% 30.28 in 10.0 mi West 3.5 mph - N/A   Clear
5:30 PM 59.0 °F - 53.6 °F 82% 30.28 in 10.0 mi WSW 4.6 mph - N/A   Clear
5:50 PM 57.2 °F - 51.8 °F 82% 30.28 in 10.0 mi West 3.5 mph - N/A   Clear
6:10 PM 53.6 °F - 50.0 °F 88% 30.29 in 10.0 mi Calm Calm - N/A   Clear
6:30 PM 50.0 °F - 44.6 °F 82% 30.29 in 10.0 mi WSW 3.5 mph - N/A   Clear
6:50 PM 44.6 °F - 39.2 °F 81% 30.30 in 10.0 mi Calm Calm - N/A   Clear
7:10 PM 41.0 °F - 35.6 °F 81% 30.31 in 10.0 mi Calm Calm - N/A   Clear
7:30 PM 37.4 °F - 32.0 °F 81% 30.32 in 10.0 mi Calm Calm - N/A   Clear
7:50 PM 35.6 °F - 32.0 °F 87% 30.32 in 10.0 mi Calm Calm - N/A   Clear
8:10 PM 35.6 °F - 30.2 °F 81% 30.32 in 10.0 mi Calm Calm - N/A   Clear
8:30 PM 33.8 °F - 30.2 °F 87% 30.33 in 10.0 mi Calm Calm - N/A   Clear
8:50 PM 32.0 °F - 28.4 °F 87% 30.33 in 10.0 mi Calm Calm - N/A   Clear
9:10 PM 30.2 °F - 26.6 °F 86% 30.33 in 10.0 mi Calm Calm - N/A   Clear
9:30 PM 28.4 °F - 24.8 °F 86% 30.34 in 10.0 mi Calm Calm - N/A   Clear
9:50 PM 30.2 °F - 26.6 °F 86% 30.35 in 10.0 mi Calm Calm - N/A   Clear
10:10 PM 28.4 °F - 24.8 °F 86% 30.35 in 10.0 mi Calm Calm - N/A   Clear
10:30 PM 26.6 °F - 23.0 °F 86% 30.36 in 10.0 mi Calm Calm - N/A   Clear
10:50 PM 26.6 °F - 23.0 °F 86% 30.36 in 10.0 mi Calm Calm - N/A   Clear
11:10 PM 26.6 °F 22.6 °F 23.0 °F 86% 30.36 in 10.0 mi SW 3.5 mph - N/A   Clear
11:30 PM 26.6 °F - 23.0 °F 86% 30.36 in 10.0 mi Calm Calm - N/A   Clear
11:50 PM 26.6 °F - 23.0 °F 86% 30.36 in 10.0 mi Calm Calm - N/A   Clear